Theta_e
314 314 316 320 320 322 323 322 327 329 328 324 321 322 320 320 322 322 320 320 321 319 319 319 319 319 319 320 321 322 323 322 323 326 324 322 321 322 322 324 327 329 332 333 334 334 334 336 339 341 340 340 339 338 338 336 334 333 333 333 333 332 332 329 328 329 329 327 324 320 318 318 319 320 320 324 328 331 329 328 330 330 330 332 334 335 333 332 331 331 330 329 327 325 323 322 320
314 317 318 321 322 324 324 324 329 329 327 320 318 321 319 321 321 320 321 320 320 319 319 320 319 320 319 320 321 323 327 325 324 324 323 325 323 321 320 325 331 331 332 334 334 334 333 335 337 339 341 340 339 339 338 337 335 334 333 333 333 332 331 329 328 328 329 329 323 318 318 319 320 320 319 321 325 329 329 327 329 331 331 331 333 336 334 333 332 331 330 329 324 319 317 317 318
316 319 320 322 324 323 325 328 327 327 326 318 316 320 319 320 321 320 320 318 319 319 319 320 319 320 319 320 321 322 326 326 325 324 325 328 324 318 320 327 332 330 332 335 335 334 333 335 336 338 340 340 340 339 338 337 336 334 332 332 332 331 331 329 328 327 328 326 322 319 318 319 320 320 320 320 322 326 329 327 327 329 331 331 332 334 334 333 332 331 329 326 318 312 310 310 311
319 321 323 323 326 324 328 330 329 330 323 319 319 318 319 320 320 319 318 318 319 319 319 319 318 319 320 320 320 321 323 325 326 325 322 322 319 317 320 326 330 328 332 335 334 334 334 335 336 337 338 339 339 338 338 337 336 334 332 333 332 331 330 329 328 328 329 327 324 321 319 319 320 320 321 321 321 323 327 327 326 327 330 331 331 333 334 332 331 329 325 319 313 309 307 307 308
320 322 323 322 327 326 328 328 331 332 320 324 323 316 320 320 320 318 317 318 318 319 319 318 318 317 319 319 319 320 322 323 323 321 319 318 317 317 318 322 327 331 333 332 333 334 336 337 336 336 337 338 339 338 338 337 337 334 333 333 333 332 330 329 329 329 330 329 327 323 319 319 320 320 322 323 322 322 324 326 326 325 328 331 331 332 333 331 330 326 319 315 313 311 307 307 307
319 322 321 321 324 322 329 327 323 324 318 325 322 315 319 317 318 317 315 317 317 319 318 318 318 317 319 319 318 320 321 322 321 318 317 317 317 317 318 319 325 335 336 331 333 336 337 339 338 336 336 337 338 338 338 337 336 335 334 334 333 332 331 329 328 329 330 330 330 328 324 321 320 321 322 324 324 323 322 325 325 322 324 328 329 330 329 327 324 320 316 316 316 313 307 306 306
321 322 321 324 326 322 333 329 319 322 319 320 319 317 318 315 317 316 316 316 316 318 317 318 317 317 320 320 320 320 319 319 320 318 317 316 316 317 318 319 325 333 335 335 334 334 335 337 337 337 336 337 338 338 338 337 336 335 335 334 333 332 331 330 327 327 329 331 331 331 328 325 323 322 323 326 325 324 324 327 327 323 322 323 324 324 323 322 320 319 319 320 318 315 309 306 306
322 322 321 328 332 328 332 326 321 325 320 317 317 318 317 316 317 315 316 317 317 316 316 317 316 319 319 319 322 321 317 316 317 317 317 316 316 318 318 318 321 324 329 337 336 333 333 333 335 336 337 337 338 338 337 337 337 336 336 335 334 333 332 331 330 327 327 329 331 330 329 328 326 324 325 327 327 326 326 328 328 326 325 323 323 323 324 324 324 323 323 321 319 317 310 306 305
321 323 322 327 331 328 328 323 320 322 320 318 316 318 317 318 318 315 315 316 317 316 316 317 317 320 318 318 321 321 317 314 315 316 316 316 316 317 318 318 318 319 323 332 334 333 332 331 331 333 336 337 336 336 337 337 337 336 336 336 334 334 333 332 331 329 329 329 330 330 329 329 328 327 326 327 329 329 328 329 329 329 327 325 325 325 326 327 326 325 323 322 320 318 312 306 305
320 322 321 328 329 323 322 320 320 320 319 319 316 317 318 317 318 316 316 316 317 316 317 318 318 319 317 318 318 319 318 314 313 314 315 315 316 315 316 318 319 318 319 323 327 329 329 328 328 330 334 335 335 336 337 337 337 337 336 336 335 334 334 333 332 331 330 330 330 330 330 329 329 329 328 329 330 330 330 330 330 331 329 326 325 325 326 326 326 324 321 320 318 318 315 308 305
322 320 320 330 328 321 323 322 320 320 318 318 316 317 317 318 318 316 317 316 317 317 317 317 318 318 316 316 316 316 315 314 313 314 314 314 315 315 315 316 318 318 318 319 319 321 322 323 324 328 332 334 335 336 336 336 337 337 337 336 336 335 334 333 333 332 331 330 330 330 330 330 329 330 330 330 331 330 330 330 330 331 331 327 325 325 325 326 324 322 320 319 317 317 316 310 305
321 323 326 327 324 321 324 324 321 320 319 319 317 317 317 317 318 316 317 317 316 317 317 317 317 317 316 315 315 313 312 313 313 314 314 314 314 315 315 315 317 317 316 317 317 317 318 319 321 326 330 333 334 335 335 335 336 337 336 336 336 335 334 333 333 332 331 330 329 330 330 330 329 330 330 330 330 330 330 330 330 330 331 329 327 324 324 324 323 322 321 319 318 317 316 311 306
320 323 330 324 325 326 324 323 322 321 318 318 317 317 318 317 317 317 316 317 316 317 316 316 316 317 316 315 314 313 312 313 313 314 314 314 313 313 315 315 315 316 316 316 316 316 316 318 319 323 328 331 332 333 334 335 336 336 336 336 336 335 334 333 333 332 332 331 330 329 328 328 328 329 328 329 330 330 329 330 330 330 331 330 329 326 325 325 324 323 323 321 319 318 317 312 307
318 319 327 325 326 327 325 323 321 323 319 317 318 316 318 317 317 317 317 317 316 317 316 315 316 317 316 315 315 313 313 313 313 314 313 314 314 313 313 314 315 315 316 316 316 316 316 317 318 320 325 329 331 332 334 334 335 335 336 335 335 335 334 333 333 332 332 331 330 328 326 326 327 328 327 327 328 329 329 329 329 330 330 331 330 328 327 327 325 325 324 321 319 320 318 313 309
316 318 324 324 324 321 323 325 324 326 320 317 318 316 317 317 317 317 317 318 317 316 316 316 316 316 317 316 316 315 314 314 314 313 313 313 313 314 313 314 315 315 315 315 316 316 315 315 317 318 321 325 328 331 333 333 334 334 335 336 336 335 334 334 333 333 332 331 330 326 325 325 325 326 325 325 326 328 328 327 326 328 329 330 329 328 328 327 327 326 325 322 320 321 319 314 311
314 320 325 322 321 319 320 324 325 325 319 317 317 316 317 316 317 317 317 317 317 316 316 317 316 316 316 316 316 314 314 313 313 313 313 314 313 314 313 314 314 315 315 315 315 315 315 315 315 316 317 319 322 327 330 331 332 333 334 335 335 335 334 334 334 333 332 331 330 327 325 324 324 325 325 324 325 327 328 327 326 326 327 328 327 327 327 328 328 327 325 323 323 322 319 316 313
315 323 327 323 321 319 318 321 323 323 319 317 316 316 318 316 317 317 317 316 316 316 316 316 315 315 315 314 315 314 314 313 313 313 314 315 315 315 314 314 314 315 315 315 315 315 315 315 314 315 315 316 319 323 325 329 331 332 333 333 334 334 334 334 333 333 332 332 331 329 327 324 323 324 325 325 325 326 327 328 328 327 327 326 326 326 327 329 329 327 326 325 324 323 321 319 317
321 329 326 321 322 319 317 320 321 321 319 317 316 317 317 317 317 317 317 316 316 316 315 314 314 314 314 314 314 314 314 313 313 313 314 315 316 316 315 314 313 314 314 315 315 315 315 315 315 315 315 315 316 320 322 325 328 330 330 331 333 333 333 333 333 333 332 332 332 331 329 326 324 325 326 326 327 328 328 329 329 327 327 327 327 327 328 330 329 328 327 325 325 325 324 322 320
321 330 326 320 321 318 316 318 317 318 318 316 316 317 317 317 317 317 317 315 315 316 314 313 314 314 313 313 313 313 313 313 313 313 314 315 315 316 315 314 314 313 314 314 315 315 315 315 315 315 315 316 315 318 320 322 326 329 329 330 331 332 332 332 332 332 332 332 332 332 332 329 327 327 328 328 328 328 328 328 327 327 327 328 328 327 328 330 329 328 327 326 326 325 324 323 322
319 326 327 320 318 316 316 317 316 317 317 316 317 317 317 317 316 316 316 315 315 315 314 313 314 313 313 313 313 313 313 313 313 312 313 314 315 315 314 313 313 313 313 313 314 314 314 315 315 315 315 316 317 318 320 323 326 328 329 330 331 331 331 331 332 332 331 331 332 333 332 331 331 331 330 329 328 327 327 327 326 327 327 328 328 327 328 329 329 328 327 326 326 324 324 323 323
319 323 325 318 316 317 317 317 317 317 317 316 317 316 316 316 316 316 315 316 316 314 314 314 314 314 314 313 313 313 313 313 313 313 313 313 313 313 313 313 313 313 313 313 313 313 313 314 314 315 315 316 318 319 322 324 325 328 328 330 331 330 331 331 331 332 331 331 332 333 333 332 332 332 332 331 331 330 329 328 329 329 328 328 328 328 328 328 327 327 327 327 325 324 324 324 323
319 319 319 317 316 317 317 317 317 316 316 316 316 316 317 316 316 316 316 318 319 315 314 315 315 315 314 313 313 313 312 313 313 313 313 313 313 313 314 314 314 314 313 313 313 312 313 313 313 314 315 316 318 321 324 324 326 329 327 329 331 330 332 332 331 332 332 331 332 333 333 333 333 333 332 332 332 331 330 331 331 331 330 329 328 328 328 327 327 327 327 327 325 323 324 324 323
321 319 317 317 317 317 317 317 317 316 316 316 316 316 316 316 316 316 316 316 317 316 315 315 315 315 314 313 313 313 312 312 312 313 313 313 313 314 314 314 314 314 314 313 313 312 312 313 313 313 314 315 319 324 324 324 328 329 326 328 330 331 332 332 332 332 332 332 333 333 333 333 333 333 332 332 331 330 330 330 330 331 331 330 329 329 329 328 328 327 326 325 324 324 325 324 324
321 320 317 317 317 317 317 317 317 315 316 316 316 316 316 316 316 316 315 316 316 316 315 314 314 314 313 313 313 312 313 312 312 312 312 313 313 313 313 313 313 313 313 313 313 312 312 312 312 313 313 314 320 324 324 325 329 329 327 328 330 332 332 331 332 332 332 333 333 332 332 333 333 332 332 331 331 330 329 329 330 330 330 330 330 329 329 329 328 327 326 325 325 326 326 325 324
319 319 317 317 318 317 317 317 317 316 316 316 315 316 316 316 316 315 315 315 316 315 314 313 312 312 312 312 312 312 312 312 312 312 312 313 313 313 313 313 313 313 313 313 312 313 312 313 313 313 313 314 319 322 322 325 329 329 328 329 330 331 331 330 330 331 332 333 332 332 332 332 331 330 330 330 331 331 331 331 331 330 330 330 329 328 329 329 327 327 326 327 327 326 326 325 323
317 317 316 317 317 317 317 317 317 316 316 316 316 316 316 316 315 315 315 315 315 314 313 312 312 311 311 311 312 312 312 313 312 312 313 313 313 313 312 313 312 312 312 312 312 312 313 313 314 314 314 315 317 320 322 326 329 329 330 330 330 330 330 329 328 329 330 331 332 331 330 328 327 327 327 329 330 330 331 331 331 331 331 330 329 329 329 328 328 328 327 327 326 325 325 324 323
316 316 317 317 317 317 317 317 316 317 316 316 316 316 316 315 315 316 314 314 313 313 312 311 311 311 311 312 312 313 312 312 312 313 313 312 313 312 312 312 312 312 312 312 312 312 313 314 316 317 317 318 320 322 325 328 329 329 330 330 330 330 330 330 329 328 329 331 331 329 329 328 327 327 327 328 328 328 329 329 330 330 330 330 329 328 328 328 327 327 326 325 324 324 323 323 322
316 316 317 317 317 317 316 316 316 316 316 316 316 315 314 314 315 316 314 313 313 312 312 311 311 312 312 312 312 312 312 312 312 312 312 312 313 312 312 312 312 312 312 312 312 313 314 314 317 320 321 322 323 325 327 328 328 329 329 329 330 330 330 330 329 329 328 329 329 328 328 327 326 327 328 327 326 327 327 327 327 328 329 329 328 327 328 327 327 326 325 325 325 324 324 323 322
316 316 318 320 318 318 317 315 316 316 316 316 315 316 317 316 314 315 314 313 312 311 311 311 311 312 312 311 311 312 312 312 312 312 312 312 312 312 312 312 312 312 312 312 313 313 315 317 319 322 323 325 325 326 327 328 328 328 328 328 329 329 329 329 328 328 327 327 328 327 326 326 326 327 328 327 326 327 326 326 326 326 327 327 327 327 327 326 326 326 326 325 325 324 324 323 322
318 316 316 321 321 323 320 315 316 316 315 316 315 318 325 322 314 313 314 313 311 311 310 310 310 311 311 311 311 311 312 311 311 311 311 311 311 312 311 312 312 311 312 313 314 314 315 318 320 322 324 324 325 327 326 326 326 327 328 327 327 328 328 328 328 327 326 327 327 326 326 326 326 326 327 326 326 326 326 327 327 327 326 326 325 325 325 325 325 325 325 324 324 323 323 323 323
319 317 319 322 321 328 324 314 316 317 315 315 316 319 325 324 314 311 313 312 311 311 310 310 310 311 311 311 311 311 311 311 311 311 311 311 311 311 311 311 311 311 312 313 314 316 317 318 319 321 325 324 325 328 326 325 325 326 326 326 326 326 325 326 326 326 326 325 325 324 324 323 324 324 325 325 325 326 326 326 326 326 325 324 324 323 323 323 323 323 323 323 323 322 322 322 323
319 318 328 326 319 330 327 313 314 317 314 313 316 319 321 320 314 311 312 311 311 311 310 310 310 311 310 311 311 311 311 311 311 311 311 311 310 311 311 310 311 311 312 314 315 317 320 320 319 320 324 326 324 324 325 326 326 325 324 324 325 324 323 324 324 324 323 323 322 321 321 322 322 323 323 324 324 324 325 324 324 324 324 323 323 323 323 323 323 322 322 322 322 321 321 321 321
324 319 328 329 321 325 324 315 314 315 314 313 315 319 321 319 312 311 312 310 311 311 311 311 310 311 310 310 310 310 311 311 311 311 311 310 310 311 311 310 311 311 313 314 314 318 321 322 322 320 322 326 326 323 325 326 324 324 325 324 324 323 323 323 322 322 322 321 321 320 321 322 322 322 322 323 323 323 323 323 323 323 323 322 322 322 322 321 321 321 321 320 320 320 319 318 318
329 321 321 325 323 321 322 321 316 313 315 315 314 316 319 318 312 310 312 311 311 311 311 312 311 311 310 310 310 310 310 311 311 311 310 310 310 310 310 310 311 313 314 314 314 318 320 322 324 322 321 324 326 325 326 324 322 324 324 323 322 322 322 321 320 321 321 321 321 321 321 322 322 321 321 321 321 321 322 322 322 321 321 321 320 320 320 320 319 319 318 317 316 315 313 311 310
331 326 323 323 324 323 322 323 318 314 316 316 316 315 316 316 313 310 311 311 311 312 311 311 311 311 310 309 309 309 309 310 311 311 310 309 310 310 310 310 310 313 314 314 315 318 318 320 323 322 320 322 324 324 324 322 322 322 321 320 320 320 320 320 320 320 320 320 320 320 320 320 320 319 319 319 319 320 320 320 320 319 318 317 317 316 316 315 314 312 311 310 308 307 305 304 302
330 328 328 327 325 324 323 322 318 315 316 317 316 316 315 315 315 312 311 311 311 311 311 311 311 311 310 309 309 309 309 309 310 310 309 309 310 310 310 310 312 314 315 315 316 317 317 318 319 320 319 320 321 320 320 320 320 320 319 318 318 319 319 319 319 319 319 319 319 319 319 318 317 316 316 316 316 316 316 315 314 313 311 309 309 308 307 306 305 304 303 302 302 301 301 300 299
323 322 324 326 324 324 324 322 318 314 317 320 318 317 316 316 318 314 310 311 310 310 311 311 311 311 310 309 308 308 308 309 309 309 308 308 310 311 310 310 313 317 317 316 317 317 317 317 317 318 319 319 319 318 319 319 318 317 316 317 317 318 319 318 318 318 318 318 317 317 315 313 312 311 311 310 310 309 308 307 306 305 304 303 303 302 301 300 300 300 299 299 299 299 300 299 298
319 320 321 323 323 323 323 321 318 315 317 323 321 319 318 318 319 315 311 310 310 310 311 310 311 311 310 310 308 308 308 308 308 308 307 308 310 310 310 311 314 316 315 316 318 318 317 316 316 317 317 318 318 317 318 318 316 315 315 316 317 317 318 317 316 316 315 313 311 310 308 307 306 305 304 304 304 303 303 303 302 301 300 300 299 299 298 298 298 298 298 298 298 298 298 298 298
320 321 320 322 325 324 323 321 318 316 318 325 326 321 319 319 319 316 311 310 311 311 312 312 312 311 310 310 309 308 308 307 307 307 307 308 310 310 310 312 314 314 313 315 317 318 317 316 315 315 315 315 315 315 315 314 315 315 316 317 316 316 315 313 311 310 308 306 305 304 304 303 303 302 301 301 301 301 301 301 300 299 299 298 298 298 298 298 298 297 297 297 297 297 296 296 296
322 322 320 324 326 323 325 323 318 317 318 321 323 321 318 317 318 318 314 311 312 312 312 312 311 311 310 310 310 309 308 308 308 307 307 308 310 310 311 313 313 313 313 314 315 315 315 315 315 315 314 314 315 315 314 314 316 316 316 315 313 311 309 308 306 304 304 304 303 302 302 301 301 301 300 300 300 300 300 299 299 298 298 298 297 298 297 297 297 296 296 296 295 295 295 294 294
325 325 323 324 325 323 324 323 320 321 323 320 319 321 323 322 320 319 315 311 311 311 311 311 311 311 311 310 310 309 309 309 308 308 307 308 309 310 311 312 313 313 314 314 314 314 314 314 314 314 314 315 315 315 315 315 315 315 314 311 308 306 305 304 304 303 302 302 302 301 300 300 300 300 300 300 299 299 299 298 298 298 297 297 297 297 296 296 295 295 295 294 294 294 293 293 293
324 327 325 322 323 324 324 324 323 327 330 324 320 326 332 331 325 322 318 313 313 312 309 310 311 310 310 309 309 309 309 309 308 308 308 308 308 310 311 312 313 313 314 315 315 314 314 314 313 313 314 315 315 314 313 313 313 312 309 307 306 305 304 302 302 302 301 301 301 300 300 299 299 299 299 299 298 298 298 298 297 297 296 296 296 295 295 295 294 294 294 293 293 293 292 292 292
323 326 327 324 322 323 323 323 323 328 331 324 321 327 330 327 324 324 323 318 316 313 309 309 309 310 310 309 309 309 308 308 308 307 307 308 308 309 311 312 312 313 314 315 314 314 314 314 313 314 314 313 312 311 310 310 309 307 306 305 306 306 304 302 301 301 301 301 300 300 299 299 298 299 298 298 298 297 297 297 296 296 295 295 295 294 294 294 293 293 293 292 292 292 292 292 291
327 326 327 328 323 323 324 324 325 329 329 323 322 325 325 323 323 323 322 321 318 314 311 309 307 308 309 308 309 309 309 308 308 307 307 307 308 309 311 312 312 313 314 314 314 314 314 313 314 314 313 311 310 309 308 307 306 305 304 305 304 304 304 302 300 300 300 300 300 299 299 298 298 298 297 297 297 296 296 296 295 295 295 294 294 294 294 293 293 292 292 292 292 291 291 291 291
327 324 326 329 327 327 327 326 325 326 325 323 323 323 324 326 326 321 318 320 319 316 313 309 307 308 308 308 308 308 308 308 307 307 307 307 308 310 311 312 313 314 313 313 313 313 313 313 313 312 310 309 307 306 305 305 304 304 304 304 303 302 302 302 300 300 300 299 299 299 298 298 297 297 297 296 296 296 295 295 294 294 294 294 293 293 293 293 292 292 292 292 291 291 291 290 290
321 321 326 329 328 328 327 326 326 324 324 324 324 323 324 327 327 322 317 319 320 318 315 311 307 307 308 307 308 307 307 307 306 306 306 307 308 311 312 312 313 314 313 313 312 312 313 313 312 310 308 306 305 304 304 303 303 303 303 303 303 302 301 301 300 299 299 298 298 298 297 297 297 296 296 296 295 295 294 294 294 294 294 293 293 293 293 292 292 292 292 291 291 291 290 290 290
318 323 328 329 328 328 328 327 324 324 324 325 325 324 323 327 328 325 320 321 321 318 317 313 308 307 307 307 307 307 306 306 306 305 306 307 308 311 313 312 313 314 313 313 312 312 312 311 309 307 306 305 304 303 303 303 302 302 302 301 302 301 301 300 300 299 299 298 298 297 297 297 296 296 296 295 295 294 294 294 293 293 293 293 293 292 292 292 292 291 291 290 290 290 289 289 289
319 328 329 326 327 328 327 323 321 325 326 325 324 322 321 325 330 327 320 320 320 319 320 318 310 306 307 307 307 307 306 306 305 305 305 306 309 312 313 312 313 313 313 312 312 312 311 309 307 306 305 304 303 303 302 302 301 301 300 300 300 300 300 300 300 299 299 298 297 297 297 296 296 296 295 295 294 294 294 294 293 293 293 293 292 292 292 291 291 290 290 290 289 289 289 289 288
321 327 326 325 325 326 327 323 322 324 323 320 320 320 321 322 324 324 320 319 319 317 316 316 310 306 306 307 307 306 306 306 305 305 305 305 308 311 312 312 312 313 313 312 312 310 308 306 305 304 303 303 302 302 302 301 300 300 299 299 299 299 299 299 299 299 298 297 297 297 296 296 296 295 295 295 294 294 293 293 293 293 292 292 292 291 291 290 290 289 289 289 289 288 288 288 288
321 322 324 326 325 326 329 326 324 325 324 319 316 319 323 322 322 322 320 317 315 312 312 314 312 310 308 307 306 306 305 305 305 304 304 305 307 310 310 311 312 313 313 312 310 308 306 305 304 303 303 302 302 301 301 300 300 299 298 298 298 299 299 298 298 298 298 297 297 297 296 296 296 295 295 294 294 293 293 293 292 292 292 292 291 290 290 289 289 289 288 288 288 288 288 288 288
318 320 323 325 327 330 331 328 326 327 326 320 315 319 325 326 325 320 314 311 310 311 312 313 312 311 309 306 305 306 305 305 304 304 304 305 307 309 310 310 311 312 312 309 307 305 304 304 303 303 302 302 301 301 300 300 299 298 298 298 298 298 298 298 297 297 297 297 296 296 296 295 295 295 294 294 293 293 293 292 292 292 291 291 290 290 289 289 288 288 288 288 288 288 288 288 288
319 322 323 323 326 329 327 325 323 322 323 320 317 322 326 323 321 316 309 308 309 310 310 310 309 308 307 306 305 305 305 304 304 303 304 305 307 309 310 310 311 311 309 307 305 304 303 303 303 302 302 302 301 300 300 299 298 298 298 298 298 298 297 297 297 297 297 296 296 296 296 295 295 294 294 293 293 292 292 292 292 292 291 290 290 289 289 288 288 288 288 288 288 288 288 288 287
320 320 322 321 323 325 325 324 320 318 323 322 319 323 323 319 319 317 312 312 311 309 307 307 306 306 305 305 304 304 304 304 304 304 304 305 307 308 309 309 309 308 307 305 304 303 303 303 302 302 301 301 301 300 299 298 298 298 298 298 298 297 297 297 297 297 297 296 296 296 295 295 294 294 294 293 292 292 292 292 292 291 291 290 289 289 289 288 288 288 288 288 288 288 287 287 287
321 321 320 319 322 324 326 326 323 322 325 323 321 323 322 320 321 318 314 315 316 312 309 306 304 304 305 304 304 304 304 304 304 304 304 305 307 308 308 308 307 306 305 304 303 303 302 302 302 302 301 301 301 300 299 298 298 298 298 297 297 297 297 297 297 297 296 296 296 295 295 295 294 294 293 293 292 292 292 292 292 291 291 290 289 289 289 288 288 288 288 288 288 287 287 287 287
318 320 318 320 326 325 324 325 325 326 325 325 324 322 321 320 321 320 316 317 319 315 311 308 305 304 304 304 304 304 304 303 303 303 304 305 307 307 307 307 306 305 304 303 303 302 302 301 301 301 301 300 300 299 298 298 297 297 297 297 296 296 296 296 296 296 296 296 295 295 295 294 294 293 293 293 292 292 292 292 292 291 290 290 289 289 288 288 288 288 288 288 287 287 287 287 286
315 316 315 320 325 323 323 324 324 326 326 326 326 323 322 320 320 322 321 318 317 315 312 310 306 304 304 304 304 303 304 304 303 304 304 305 306 306 306 305 305 304 303 303 302 302 301 301 301 300 300 299 299 299 298 297 297 297 297 296 296 296 296 296 296 296 296 295 295 295 295 294 294 293 293 292 292 292 292 292 292 291 290 289 289 288 288 288 288 288 288 288 287 287 287 286 286
317 318 318 319 319 320 323 322 322 325 325 326 326 324 326 325 319 319 320 318 315 313 313 310 305 304 305 305 304 304 304 304 304 304 304 305 306 305 305 304 304 303 303 302 302 301 301 301 300 300 299 299 299 298 297 297 296 296 296 296 296 296 296 296 296 295 295 295 295 295 294 294 293 293 292 292 292 292 292 292 291 291 290 289 288 288 288 288 288 288 288 288 287 287 287 287 286
317 317 318 319 318 320 323 322 321 322 323 327 326 323 327 327 320 316 318 317 313 310 311 309 306 305 306 305 305 305 305 305 304 304 304 305 305 305 304 304 303 303 302 302 301 301 301 300 300 300 299 299 298 298 297 296 296 296 296 296 296 296 296 295 295 295 295 295 294 294 294 293 293 293 292 292 292 292 292 292 291 290 289 289 288 288 288 288 288 288 288 288 287 287 287 287 286
Wind_Speed
4 5 4 4 3 1 3 5 2 2 4 4 2 3 1 1 3 4 4 4 4 3 6 7 10 13 11 14 17 18 15 6 2 4 5 3 3 4 5 4 3 4 5 3 9 14 11 10 10 10 9 8 8 7 7 7 7 6 5 5 5 5 7 7 7 8 9 9 10 11 11 12 12 13 13 12 12 12 12 12 12 11 10 10 10 10 9 8 9 10 11 12 13 13 11 10 8
5 5 3 4 2 2 3 4 2 2 5 4 1 3 1 3 6 5 5 4 3 2 6 10 13 14 16 19 18 17 16 13 11 12 11 7 6 5 5 6 6 5 7 6 9 14 11 10 8 9 9 8 8 7 7 7 6 6 5 4 4 5 6 6 6 7 9 8 8 10 11 11 11 11 11 11 12 12 11 10 10 10 9 9 9 9 9 8 9 10 11 13 14 14 13 11 9
5 5 3 3 2 4 3 3 3 3 5 4 1 2 2 5 6 5 6 6 5 5 5 8 11 12 14 13 11 11 7 10 13 11 10 6 6 7 7 8 7 5 7 7 8 13 11 10 7 8 9 8 8 7 6 6 5 5 4 4 4 5 6 6 6 7 8 8 8 10 10 10 10 11 11 11 11 11 10 9 9 8 8 8 7 8 8 8 9 10 12 14 15 15 13 11 9
5 5 4 2 2 4 3 3 3 5 4 4 1 2 3 7 6 6 8 7 6 6 4 5 7 11 16 10 6 10 7 7 8 6 7 5 7 8 8 9 7 5 7 7 6 12 11 9 7 7 7 8 8 7 6 5 4 4 4 4 4 5 6 6 6 7 8 8 8 8 8 9 9 10 10 10 10 10 10 9 7 6 6 7 6 7 7 8 10 13 15 16 16 16 15 13 11
5 4 4 3 3 2 2 3 2 5 3 4 3 1 5 7 6 7 8 8 7 8 8 6 4 8 14 9 4 5 4 4 4 5 8 7 8 7 8 9 7 6 5 7 8 10 10 8 8 7 7 7 7 7 6 5 4 3 3 4 4 4 5 6 6 6 7 8 7 7 7 7 8 9 10 10 10 10 10 8 7 4 4 6 5 6 8 10 12 15 16 17 18 18 18 15 13
4 3 2 5 3 1 2 3 3 4 1 4 5 3 6 8 9 10 10 10 9 9 9 8 6 9 12 12 12 9 5 3 2 6 9 8 8 6 8 9 10 9 4 6 9 8 8 8 8 7 7 7 7 7 6 5 4 3 3 3 4 4 4 5 6 6 6 7 7 7 6 6 6 7 8 9 9 9 9 8 7 5 4 4 5 7 11 13 15 16 17 18 19 20 19 17 14
4 3 3 4 2 2 4 4 3 3 2 2 6 5 7 9 13 14 9 7 7 7 10 10 10 12 8 6 11 12 8 5 4 7 9 8 7 5 7 10 13 11 7 5 7 6 7 8 8 8 8 7 7 7 6 5 4 3 3 2 3 3 4 4 6 6 6 6 6 6 6 5 6 6 7 7 8 8 8 8 8 7 6 5 6 9 12 14 14 15 17 18 19 20 20 18 15
4 4 4 3 2 3 4 4 2 3 2 2 5 6 7 8 11 11 6 5 4 5 8 9 9 9 3 5 7 7 9 9 7 9 8 8 7 5 4 8 11 11 9 7 6 5 5 7 8 9 9 8 7 7 6 5 4 3 3 3 3 4 4 4 6 6 6 5 5 5 5 5 6 6 6 6 7 7 7 7 7 7 8 8 8 9 11 13 14 15 17 18 19 20 19 18 16
4 5 3 3 2 3 4 3 2 3 2 2 4 6 7 7 7 6 6 7 7 6 7 5 5 7 5 10 10 5 9 10 8 7 8 7 7 6 4 6 7 7 8 9 9 8 6 7 8 9 11 9 8 7 6 5 4 3 4 3 3 3 3 4 6 6 6 5 5 4 4 4 4 5 4 5 6 6 7 6 6 6 7 8 8 9 11 12 14 15 17 19 20 19 19 18 16
4 4 1 2 2 4 3 1 1 3 3 4 6 7 6 5 7 8 9 7 7 7 6 7 8 11 10 11 9 5 6 7 6 5 6 6 6 6 5 5 5 5 6 8 9 10 9 9 8 10 12 11 9 8 7 6 5 4 4 3 3 3 3 3 4 5 6 5 4 4 3 3 3 4 4 4 5 6 6 5 5 5 6 8 9 9 11 12 14 15 17 19 19 19 18 17 15
4 3 1 3 4 2 2 2 2 3 3 4 5 6 6 4 5 8 10 8 8 8 6 8 10 13 11 8 8 7 5 4 4 4 4 5 5 5 5 6 6 6 6 7 7 8 8 10 10 11 13 12 10 10 8 7 6 6 5 4 3 3 3 2 2 3 4 4 3 3 3 2 2 3 3 4 3 5 5 4 3 3 4 8 9 10 11 12 14 16 17 18 18 17 17 16 15
3 3 3 4 1 0 3 4 5 4 4 3 2 5 6 4 4 4 8 8 10 10 7 6 5 9 7 5 9 9 6 3 4 4 3 3 4 4 6 6 7 7 7 6 6 6 6 8 10 11 13 13 12 11 10 8 8 7 6 6 5 3 3 2 2 3 3 3 2 2 2 2 2 1 2 2 3 3 4 4 3 3 4 7 9 10 11 12 14 16 17 17 17 16 15 15 13
3 2 5 2 2 3 4 4 5 3 3 1 4 7 6 4 4 5 9 10 9 8 6 5 3 6 6 5 9 10 6 3 2 2 2 2 3 4 5 7 8 7 7 7 6 6 6 7 10 11 13 14 13 12 11 10 9 8 8 7 6 5 4 4 3 3 3 3 2 1 1 1 1 1 1 1 1 2 2 2 2 3 5 6 8 10 11 12 14 16 17 17 17 16 15 14 13
4 2 4 1 1 3 5 3 3 4 1 3 6 10 5 4 5 8 12 9 7 6 4 3 3 5 6 6 7 9 7 3 1 1 2 3 4 4 5 6 8 8 8 8 7 7 7 7 8 11 13 14 14 13 13 12 11 10 9 8 7 7 6 5 5 4 4 3 2 1 1 1 1 2 2 2 1 1 1 2 2 3 4 5 6 9 11 11 13 15 16 16 15 15 14 14 12
4 3 3 2 3 1 3 3 4 5 2 3 6 10 6 6 6 8 11 6 5 6 3 3 2 4 5 5 6 10 6 2 1 2 3 4 5 5 5 7 8 9 9 9 9 8 8 8 8 11 14 15 17 16 16 15 13 12 10 9 8 7 6 6 6 5 4 3 2 1 2 2 2 2 3 3 3 3 3 4 4 4 3 4 6 9 10 10 13 14 15 15 15 14 14 13 13
5 3 4 3 2 1 1 2 5 5 2 4 7 9 6 6 6 7 7 4 6 6 3 2 2 4 7 6 8 8 3 1 1 3 5 5 6 7 7 8 8 10 11 11 11 10 10 10 9 10 12 13 16 18 17 17 15 14 13 12 11 9 8 7 6 5 4 3 2 1 2 3 4 3 4 4 4 4 4 5 6 5 5 6 7 8 9 10 11 12 13 14 15 15 14 14 14
5 3 5 2 1 0 1 0 3 4 3 4 7 8 4 3 4 6 4 3 7 7 4 5 3 4 6 6 8 6 2 1 2 4 7 6 6 7 9 9 9 9 10 11 12 12 11 11 10 10 11 11 13 17 17 17 16 16 16 14 13 11 10 8 7 6 5 4 3 3 3 4 4 4 4 4 4 4 4 5 5 5 6 7 7 7 8 9 10 10 10 11 14 15 14 15 15
5 2 4 1 1 1 2 1 3 5 5 5 7 5 3 4 4 5 3 4 9 8 6 7 5 5 4 5 6 4 3 3 4 6 8 8 7 6 6 7 8 9 9 10 11 12 12 12 11 11 10 9 10 13 15 15 16 17 17 15 14 13 12 10 9 7 6 5 5 5 5 5 5 5 4 4 4 4 4 4 5 6 7 7 7 7 7 7 7 8 9 11 13 13 12 14 15
4 3 3 1 3 2 2 4 4 5 7 8 7 4 4 6 5 5 1 4 11 8 6 7 6 7 5 4 4 3 4 4 6 8 9 9 8 6 5 5 6 7 8 9 10 10 11 12 12 12 10 9 9 11 12 12 13 15 15 14 14 12 12 11 10 9 8 8 8 7 7 7 6 5 5 4 4 5 5 5 5 6 6 6 6 6 5 4 5 6 8 10 10 11 11 13 14
3 3 3 3 4 4 6 9 9 8 12 10 7 4 5 6 6 6 2 3 7 6 7 7 8 9 8 6 4 3 4 5 7 9 9 9 8 8 7 7 6 7 8 9 10 10 10 11 12 12 11 10 9 10 10 9 10 11 12 12 12 11 11 11 11 10 10 10 9 8 8 7 6 6 5 4 4 5 6 5 5 6 5 5 4 4 3 3 4 5 7 8 9 10 11 13 14
2 2 3 4 3 4 4 8 9 9 12 11 9 4 3 5 6 5 4 3 1 6 10 9 10 12 10 7 5 5 6 6 7 8 8 8 7 7 6 6 6 7 8 9 9 8 9 10 11 12 12 12 11 10 11 10 8 8 9 10 9 9 10 11 11 10 10 10 9 9 8 7 6 6 5 5 4 4 4 4 4 4 4 4 3 2 1 2 3 4 6 8 9 9 11 12 13
3 2 3 2 4 3 2 5 5 5 7 8 7 5 4 5 4 3 4 4 3 8 12 11 12 11 9 7 6 7 7 7 7 6 6 6 6 6 6 6 7 7 8 9 8 6 8 10 10 10 11 12 12 11 12 11 9 8 9 10 10 11 11 12 12 11 10 10 9 9 7 6 6 6 6 6 5 4 3 3 3 3 4 4 3 2 1 2 2 3 3 6 9 9 11 12 13
2 0 2 6 5 5 4 4 3 2 3 4 4 4 4 3 2 4 6 6 6 10 13 12 10 9 8 7 6 8 9 9 8 7 6 6 6 7 7 7 8 8 8 9 8 7 8 8 9 9 10 13 13 14 15 13 11 10 10 11 12 12 13 12 11 11 11 10 9 8 6 6 6 6 5 5 5 5 4 5 5 5 4 3 2 3 2 2 2 3 4 7 9 9 10 12 14
3 1 2 4 4 5 5 2 2 2 2 3 2 3 4 3 2 3 6 7 8 11 13 11 10 10 10 9 9 10 10 10 8 8 8 8 8 8 8 8 8 8 8 8 8 8 8 8 8 8 11 14 17 18 18 15 13 12 11 13 14 13 13 11 9 10 11 10 10 9 9 8 7 7 6 6 5 6 7 8 8 7 6 3 4 4 4 5 4 3 5 7 8 9 9 11 13
4 1 2 2 0 3 4 4 4 5 4 4 3 4 6 6 4 4 7 10 11 12 11 10 10 11 12 12 11 11 10 9 8 8 9 9 9 8 8 8 8 8 8 7 7 8 8 8 8 9 12 15 18 20 19 16 14 14 13 14 15 15 13 11 9 9 10 10 10 10 9 8 7 8 9 8 7 7 8 9 9 10 9 7 8 7 6 5 3 3 4 5 7 9 10 10 12
2 1 4 4 2 3 5 7 6 7 6 5 4 5 8 7 6 5 9 13 12 12 10 9 10 11 12 12 12 11 9 8 8 9 9 9 9 8 8 8 8 7 7 7 7 8 8 8 9 10 13 16 18 19 18 18 16 15 15 15 16 16 15 13 12 11 10 11 9 8 6 6 6 7 8 9 9 8 7 7 6 6 7 7 7 6 5 3 3 3 3 5 7 7 8 9 10
2 3 6 7 8 8 8 9 9 8 7 8 5 4 7 5 5 5 9 15 14 12 11 10 11 12 13 11 10 9 8 8 9 9 9 9 9 9 8 7 7 6 6 6 6 7 7 9 10 11 14 16 18 18 17 19 18 16 17 17 16 16 16 15 13 12 12 12 9 7 6 5 5 6 8 9 9 9 8 7 4 3 4 5 5 4 4 4 5 5 4 5 7 6 7 8 8
2 4 7 9 11 11 10 11 11 9 6 10 8 4 5 2 4 7 12 17 15 14 13 13 13 13 12 10 9 8 8 8 9 9 9 10 9 9 9 8 7 6 5 5 6 7 7 9 12 13 13 14 16 18 17 18 18 17 17 17 16 16 15 14 13 11 11 11 10 8 7 7 7 8 9 10 9 8 8 7 6 4 4 3 3 3 4 5 5 5 5 6 7 7 7 9 8
2 3 4 7 7 7 11 13 14 11 4 8 8 2 5 4 6 7 13 18 15 14 14 15 15 13 12 10 9 9 9 9 9 9 10 10 9 9 10 10 8 6 5 5 6 7 7 10 14 14 14 14 15 17 18 18 16 15 16 16 16 16 15 13 12 10 9 9 9 8 7 8 8 9 10 10 8 5 5 5 5 4 3 2 2 3 4 5 5 6 7 7 8 8 9 10 10
2 2 1 4 7 5 9 10 14 11 4 10 9 2 6 7 8 8 13 18 17 15 16 16 15 14 12 10 10 10 10 10 10 10 10 10 10 10 10 9 9 7 6 6 6 7 8 12 14 15 14 13 14 16 17 17 16 14 15 15 14 13 11 9 9 8 8 8 8 8 8 8 7 6 6 6 5 4 3 2 2 2 1 1 2 2 3 4 6 7 7 8 8 9 9 9 9
1 2 1 1 2 5 7 3 13 9 4 12 9 1 7 7 6 11 15 18 18 18 18 17 16 14 13 12 11 11 11 11 11 11 10 10 10 9 9 9 8 8 7 6 7 7 8 11 12 13 12 11 14 16 14 14 15 15 14 13 12 10 8 7 7 7 7 7 7 8 7 6 5 5 5 4 4 4 4 3 2 1 1 2 3 3 4 4 5 5 6 7 8 8 9 8 8
1 1 3 2 2 5 7 3 14 8 3 11 8 1 7 7 6 14 16 18 19 19 19 18 17 16 14 13 13 13 13 13 12 12 11 10 9 9 9 8 8 8 7 7 9 10 10 9 9 12 12 11 13 14 14 15 15 14 12 12 11 10 8 8 7 7 7 7 7 7 6 5 5 5 5 4 3 4 3 2 1 1 1 2 3 4 4 4 4 5 6 6 7 8 8 8 8
2 2 3 3 2 4 5 2 9 9 5 7 6 3 4 5 8 16 16 19 20 18 19 20 19 18 16 15 14 14 14 14 14 13 11 10 9 9 8 7 8 7 8 9 11 14 14 11 9 12 14 13 13 14 17 16 14 13 12 12 11 10 9 9 8 8 8 8 7 8 7 6 6 6 5 5 4 4 3 3 2 1 0 1 1 2 3 3 4 5 6 7 7 8 8 8 8
4 1 3 4 3 3 2 4 5 8 7 5 6 4 5 5 8 17 19 21 21 20 22 23 22 20 18 17 16 16 15 14 14 13 11 10 10 9 8 8 9 9 10 10 11 16 17 16 14 13 14 15 15 17 17 14 13 15 14 13 12 11 11 10 10 10 9 9 9 9 8 7 7 6 5 5 4 4 4 4 3 2 1 0 1 2 3 3 4 5 6 7 8 9 9 9 10
3 3 2 4 3 3 4 4 4 8 5 5 5 6 10 9 7 16 21 22 23 23 23 23 24 22 20 19 19 18 17 16 15 13 11 11 11 10 9 9 10 11 12 12 14 17 18 19 18 14 15 16 16 16 15 14 15 15 14 13 13 13 13 12 12 11 10 10 10 10 8 7 6 5 5 5 4 4 3 3 3 1 1 2 2 2 3 3 4 5 6 7 8 10 11 12 13
6 5 4 4 4 4 5 4 5 8 4 5 8 7 10 10 8 12 20 23 24 24 20 20 23 23 22 22 21 20 19 18 16 13 10 11 12 11 11 11 11 13 13 14 17 18 18 20 21 18 17 18 17 16 15 15 16 15 14 15 16 16 15 14 13 11 11 11 10 9 8 7 6 5 5 5 4 4 4 4 3 3 4 4 3 4 5 6 7 7 8 8 8 9 9 12 14
5 4 3 4 4 5 4 4 4 5 4 6 8 8 9 9 8 12 21 22 20 21 19 20 24 25 26 25 23 22 20 19 16 13 11 12 14 14 13 14 16 18 17 16 18 19 19 19 20 20 19 17 16 16 16 16 15 14 16 17 18 17 15 14 14 12 12 11 10 9 8 9 9 8 9 8 8 8 9 9 8 8 8 7 7 8 10 10 9 10 9 9 9 9 10 12 13
6 5 5 5 4 6 5 3 3 1 2 5 5 6 9 9 7 11 16 15 16 24 24 23 27 28 28 27 24 23 21 20 17 15 14 15 16 16 15 16 19 21 20 19 19 20 21 19 18 19 19 18 17 17 18 17 14 13 16 19 19 19 16 14 14 14 13 14 14 13 13 14 13 14 14 13 12 12 11 10 10 9 10 9 10 10 10 9 10 10 11 11 13 14 14 14 14
8 5 3 5 4 4 5 3 3 1 2 4 5 5 9 9 8 9 14 17 21 31 32 30 32 31 30 28 26 26 24 22 20 17 16 17 19 18 18 19 20 20 21 22 22 21 21 19 18 17 18 18 17 16 16 17 16 16 17 19 18 18 18 16 16 18 17 18 18 17 17 16 15 15 14 12 11 11 10 9 9 9 9 9 9 8 8 9 10 12 13 14 15 15 15 16 16
6 5 3 4 4 2 3 4 4 2 1 3 5 6 8 8 8 10 16 20 20 26 30 28 28 30 31 30 29 28 27 25 22 19 18 20 21 20 21 22 21 21 22 23 23 22 21 20 18 17 18 17 17 17 16 18 20 19 18 18 18 19 21 21 21 22 20 19 18 17 16 15 13 12 12 10 9 9 8 8 9 8 8 9 8 9 9 11 12 13 14 15 15 15 16 17 17
4 5 5 5 4 4 6 3 2 3 4 2 3 6 7 7 8 10 9 10 11 16 22 22 23 27 28 28 28 28 27 26 24 22 21 22 23 23 23 24 23 23 23 23 23 22 21 21 19 19 19 19 18 18 18 19 21 21 22 22 23 24 24 23 22 22 20 18 17 16 15 13 11 10 9 8 7 8 7 8 8 8 9 9 10 11 12 12 13 14 15 15 16 16 17 16 16
5 4 7 8 7 7 6 2 3 4 5 3 2 2 7 4 6 8 3 3 8 11 15 19 21 24 27 28 29 28 26 25 23 22 22 24 25 25 25 25 25 25 24 24 23 23 22 22 22 21 20 20 19 18 18 19 21 22 23 24 25 24 25 23 21 20 18 17 15 14 14 12 9 8 8 7 7 6 6 7 7 8 9 10 11 12 12 13 14 15 16 16 17 17 16 15 16
4 5 7 8 8 7 6 1 1 2 4 3 3 2 7 6 5 8 5 5 9 9 10 15 20 23 28 30 30 30 28 26 24 22 23 25 27 28 28 27 27 27 27 26 25 24 24 23 23 22 21 21 20 20 20 20 21 23 23 22 21 20 22 22 20 18 17 15 14 13 12 11 9 7 7 7 6 6 6 7 7 8 9 10 12 12 13 14 15 16 16 17 17 17 17 17 18
4 5 4 6 6 7 6 3 2 4 3 4 2 3 5 9 7 7 7 8 9 9 9 12 18 23 27 29 30 30 29 28 27 25 25 28 29 30 29 28 29 29 28 27 26 26 25 25 24 23 22 22 22 21 21 21 22 23 22 20 20 18 18 20 21 18 16 14 13 13 11 10 9 7 7 6 6 6 7 8 9 9 10 11 12 13 15 16 16 16 17 17 18 18 19 20 19
5 5 5 6 5 4 3 4 1 1 2 4 2 3 3 9 6 1 3 7 10 12 13 13 19 24 27 29 29 29 28 27 26 26 26 28 30 30 30 30 30 30 29 28 27 27 26 25 24 24 24 24 24 23 23 22 21 20 20 19 20 20 18 19 19 17 16 14 12 12 10 9 8 7 6 6 6 7 8 9 10 10 12 13 13 14 15 15 16 16 17 18 19 19 20 20 19
4 4 6 6 4 4 5 4 3 3 2 4 5 5 3 8 4 3 2 5 9 12 12 12 19 27 28 29 29 27 27 26 25 25 26 28 30 31 31 31 32 31 29 28 28 27 27 25 25 24 25 25 24 24 23 23 20 19 19 18 18 20 19 18 18 16 15 13 11 11 10 9 8 6 6 6 6 8 9 10 10 11 12 13 13 14 14 15 15 16 16 17 17 17 17 17 18
7 7 6 7 6 5 4 3 4 2 4 6 10 11 7 6 3 4 4 5 7 8 7 7 15 25 29 30 30 29 28 28 26 25 26 28 31 33 32 33 33 32 31 30 29 28 27 26 25 25 25 25 25 24 23 23 21 19 18 18 17 17 18 17 16 16 15 13 12 11 10 8 7 6 5 6 6 7 8 9 9 10 11 11 12 12 13 13 14 14 14 14 14 14 14 15 15
8 5 5 4 4 4 4 4 4 1 6 5 10 12 11 9 6 3 5 6 5 7 7 7 11 22 30 32 32 32 31 30 29 28 29 31 34 35 35 35 35 34 33 32 30 29 28 27 27 27 26 26 25 25 24 24 23 21 19 18 17 15 15 15 14 14 14 13 11 10 9 7 6 5 4 4 5 6 7 7 8 9 9 10 10 11 12 12 13 13 12 12 12 12 12 12 12
5 5 6 3 2 2 3 2 0 4 6 3 6 8 7 10 8 7 10 10 9 8 8 11 15 22 29 32 33 34 33 32 32 31 32 34 37 38 38 38 37 37 35 34 31 30 30 29 29 29 28 28 27 26 26 25 24 22 21 19 17 16 15 14 14 13 14 12 10 9 8 6 5 4 3 3 4 4 5 5 6 6 8 9 10 11 11 11 11 11 10 10 11 10 10 11 11
6 6 7 5 3 1 3 4 2 4 5 4 3 6 3 6 5 11 15 12 10 9 10 14 19 25 30 33 34 34 35 35 34 34 34 35 38 39 39 40 40 38 36 34 33 32 32 32 31 30 30 29 28 27 26 25 24 23 21 19 18 16 16 15 14 13 12 12 10 8 7 5 4 2 2 1 2 3 3 4 5 6 8 9 10 11 10 10 10 10 10 10 10 11 11 12 12
6 5 6 5 5 4 4 4 4 4 4 4 1 3 4 3 2 8 9 8 6 7 9 14 18 23 28 31 32 34 35 36 35 36 36 36 37 39 40 41 41 39 37 36 35 35 34 33 33 32 31 30 29 28 27 26 25 24 22 20 18 17 16 16 14 12 11 11 10 8 6 5 4 2 2 1 2 3 3 4 6 8 9 10 10 10 10 10 10 10 11 11 12 12 12 12 13
3 3 4 3 6 5 3 3 4 3 2 3 2 4 5 4 5 5 3 5 4 2 7 13 16 20 26 29 32 34 36 37 37 37 37 36 37 40 41 42 41 39 38 38 38 37 36 35 34 32 31 30 30 28 27 26 25 24 23 21 20 18 17 16 15 13 12 11 9 8 7 5 4 3 3 2 3 4 4 6 7 9 10 10 10 10 10 10 10 11 11 12 12 12 12 13 13
2 3 4 4 4 5 2 3 1 2 3 4 4 5 4 3 7 5 1 3 3 0 6 12 16 21 27 30 34 36 37 38 38 38 38 38 38 41 42 43 42 41 40 40 39 38 36 35 34 33 32 31 30 28 27 26 26 25 24 23 21 19 18 16 14 14 13 12 10 9 7 6 6 5 4 4 4 4 5 6 8 9 10 10 10 10 10 10 11 11 11 11 12 12 12 12 12
5 4 6 2 2 1 2 1 3 2 4 5 4 7 5 2 6 3 2 3 6 5 6 9 14 21 26 29 34 36 38 38 38 38 38 38 40 42 44 43 43 42 42 41 39 38 36 35 34 34 33 31 30 29 28 27 27 26 25 24 22 20 18 16 14 14 13 12 11 10 8 7 6 5 4 4 4 4 5 6 8 9 10 10 10 10 10 10 10 10 10 11 11 12 12 12 12
5 4 5 4 1 1 3 2 2 2 4 5 3 5 6 6 6 2 4 9 10 8 7 7 12 20 25 28 32 35 36 37 38 39 40 41 43 44 45 45 44 43 42 41 40 38 37 35 34 33 32 31 30 29 28 28 28 27 25 24 23 21 19 17 16 15 14 13 11 10 9 8 7 6 4 4 3 3 4 6 7 9 9 9 9 9 9 9 10 10 10 11 11 11 12 12 12
3 2 2 2 2 3 4 3 3 3 3 4 3 3 5 7 7 8 10 13 13 11 9 9 14 23 28 30 33 35 38 39 41 41 42 43 44 46 46 46 45 44 43 41 40 39 38 36 35 33 32 31 30 30 30 30 29 28 26 25 24 22 20 19 18 16 15 14 12 11 10 9 7 6 5 3 2 2 3 5 7 8 9 9 9 9 9 9 9 10 10 11 11 11 11 12 12
3 3 5 3 1 2 1 2 2 4 2 3 3 6 7 4 5 10 14 14 13 14 13 12 17 26 30 32 36 38 40 41 42 43 44 45 46 46 46 46 45 44 43 42 41 40 38 37 36 34 33 33 32 31 31 31 30 29 27 26 25 23 22 21 19 18 16 15 14 13 11 10 8 6 5 3 2 0 2 5 6 8 9 9 9 9 9 10 10 10 11 11 11 11 12 12 12
6 6 7 7 5 4 1 4 3 4 3 4 3 8 10 4 4 7 11 10 10 15 16 14 19 28 32 33 37 39 40 41 43 44 45 46 47 48 47 47 45 45 44 43 42 41 40 38 37 35 34 34 33 33 32 31 30 30 29 28 26 25 24 23 21 20 18 17 16 14 12 10 9 7 6 5 3 2 2 4 6 8 9 9 9 9 9 10 10 10 11 11 12 12 13 13 13
Wind_Direction
145 155 180 188 177 130 41 31 38 347 66 95 95 95 59 80 96 71 51 54 68 15 45 73 47 50 85 98 98 81 57 52 89 100 134 158 102 132 116 128 176 146 141 131 167 169 165 159 148 148 143 138 129 113 112 105 102 96 91 86 73 63 55 57 70 85 94 103 109 107 102 96 87 78 77 77 76 69 61 59 60 57 49 45 49 54 53 50 51 49 41 31 21 16 14 17 22
130 151 176 161 125 37 32 36 69 12 51 70 22 107 113 51 69 81 85 79 107 106 80 77 51 56 97 100 89 75 55 57 79 101 119 110 91 132 116 120 162 148 125 109 157 168 167 163 152 155 152 145 136 126 120 106 102 89 82 84 78 68 62 60 65 85 93 97 101 101 100 94 86 79 77 77 77 75 66 61 63 64 54 44 41 44 42 42 46 40 28 18 9 4 2 2 4
122 140 147 147 84 25 30 44 78 73 73 91 352 313 74 78 95 118 104 95 98 92 95 80 54 59 89 83 66 74 73 70 81 97 104 104 110 124 109 119 149 143 123 102 146 170 167 166 158 158 159 154 147 138 131 120 111 89 77 79 79 76 73 70 68 80 91 91 89 93 97 93 86 78 76 75 75 75 70 64 64 67 61 50 38 35 35 37 35 24 14 7 4 2 0 358 357
118 121 113 117 36 31 47 57 100 105 105 131 83 340 95 112 126 124 101 93 89 78 80 79 61 73 83 78 78 82 76 64 73 101 98 108 124 122 111 118 142 132 127 104 129 167 166 169 168 165 166 163 159 147 143 136 120 96 81 75 76 74 74 78 80 86 91 89 84 87 92 87 80 74 72 70 70 71 69 64 65 74 68 55 42 32 29 29 23 13 6 2 4 7 7 3 2
115 114 103 48 29 31 70 65 81 91 132 171 123 133 127 127 130 121 109 101 95 77 67 76 85 91 82 68 76 73 59 70 69 108 111 116 119 116 116 122 138 126 130 114 117 158 164 170 171 174 177 172 169 162 159 148 134 117 95 84 79 72 72 77 82 91 95 94 88 88 92 86 77 73 70 66 67 67 67 65 62 71 72 55 46 30 20 18 11 4 360 1 5 10 11 9 10
125 126 83 22 31 40 69 68 61 68 187 162 126 167 139 131 131 123 114 101 97 86 74 84 110 105 84 68 70 61 55 88 87 108 110 114 117 119 125 123 128 133 158 127 120 153 168 175 175 176 181 182 180 173 169 157 150 133 110 96 86 77 70 73 80 91 99 99 94 90 92 89 81 75 67 65 65 64 65 66 64 65 63 41 27 14 8 5 360 357 358 2 7 11 13 13 15
111 93 35 15 31 47 82 104 108 82 350 111 132 154 136 131 133 128 120 102 94 90 83 87 106 99 88 98 75 59 69 99 111 110 113 117 123 127 125 124 132 149 176 156 140 161 173 180 181 182 184 186 186 182 180 168 159 144 133 123 109 96 83 78 79 88 101 106 103 95 94 91 83 75 67 64 61 62 66 71 72 69 64 44 17 4 358 356 355 358 2 5 8 12 14 15 17
82 52 35 42 35 35 87 104 119 137 37 65 125 132 124 118 124 135 135 120 113 88 87 89 101 93 78 146 99 73 92 96 100 106 119 123 125 133 127 136 147 160 171 174 179 188 188 185 185 190 188 188 189 187 186 180 173 160 145 135 127 120 105 97 91 93 102 109 114 105 97 88 80 76 72 71 61 55 66 79 79 71 67 56 32 13 4 2 5 7 6 7 8 11 16 18 20
68 50 41 58 46 39 79 86 80 127 115 93 94 105 113 93 90 122 118 100 112 91 78 62 89 122 116 109 106 117 105 89 95 105 120 129 133 140 141 154 165 168 172 182 190 202 207 198 193 194 192 190 189 190 191 189 191 180 155 142 132 131 121 112 108 106 111 117 120 113 103 90 81 78 78 82 70 56 62 82 85 69 57 47 35 25 18 16 15 10 7 8 8 9 15 19 22
63 54 33 61 58 53 74 98 98 118 140 132 104 99 105 88 75 101 112 100 112 92 65 61 91 135 127 105 114 132 109 92 106 118 125 132 140 147 152 167 188 187 186 192 194 203 207 203 199 195 193 191 190 192 196 197 200 198 182 161 145 141 134 123 117 113 116 122 125 120 113 103 91 81 81 82 72 67 66 75 85 70 51 38 30 27 25 24 18 11 8 8 7 9 13 19 23
47 11 359 69 49 31 145 150 127 138 140 116 92 97 105 102 76 93 108 101 111 97 74 82 99 129 120 106 135 132 113 118 139 145 132 134 145 159 164 166 189 204 204 207 210 210 206 202 200 196 192 191 194 195 198 202 200 197 197 181 167 153 143 141 126 117 116 123 131 124 114 97 87 89 95 84 62 66 69 71 68 47 39 33 28 25 24 23 16 10 9 7 7 9 14 19 23
32 342 50 83 72 208 171 144 147 145 113 97 89 127 129 107 61 81 106 97 110 99 74 71 97 133 115 113 150 143 130 146 161 150 135 145 159 172 181 174 185 206 210 210 220 218 211 203 197 197 194 193 198 200 201 202 202 200 203 201 197 194 185 177 147 128 117 122 131 122 119 88 72 79 100 87 57 53 62 66 44 9 10 19 20 18 18 18 13 10 9 8 8 10 15 20 23
45 30 73 103 192 141 127 129 156 129 94 162 169 155 149 114 68 69 98 93 105 106 79 68 86 116 109 129 154 164 168 180 165 146 162 174 186 188 192 190 191 203 209 213 223 220 218 213 200 195 195 199 204 203 204 204 204 205 209 210 209 213 210 199 188 171 145 139 150 148 155 86 40 341 355 57 54 45 54 61 31 3 360 7 10 8 12 16 11 9 8 9 11 13 17 21 24
51 54 91 134 305 112 120 120 160 120 109 253 166 154 139 108 83 71 92 87 86 105 97 94 97 96 116 134 155 188 199 218 196 181 212 203 210 202 196 197 197 201 205 211 220 223 221 222 211 198 194 200 205 203 205 207 205 207 213 213 212 217 217 213 214 205 185 182 187 200 249 263 300 301 306 303 314 332 344 350 352 4 1 359 2 3 8 13 8 7 7 9 15 18 20 23 27
41 38 94 88 1 41 140 156 155 121 164 238 158 153 121 103 107 83 93 98 99 108 114 127 114 109 150 168 177 190 199 235 215 162 170 183 202 197 200 198 196 200 204 209 211 217 216 215 214 209 203 201 203 202 206 210 208 209 212 212 212 215 217 216 218 217 217 218 222 282 291 276 270 267 286 290 303 322 326 331 336 344 350 347 353 358 1 4 4 7 8 10 18 22 22 23 27
34 37 77 62 342 284 213 157 122 107 197 212 165 155 120 106 125 103 95 110 124 132 151 143 117 119 146 165 174 184 200 258 187 154 155 161 182 188 200 202 200 201 204 209 209 211 213 212 211 213 213 209 208 206 207 211 213 214 214 214 214 213 215 216 216 214 222 231 233 278 291 282 271 267 282 288 301 315 319 324 328 333 335 336 345 352 354 357 1 7 11 12 19 24 24 22 24
26 42 67 43 297 191 269 115 132 148 187 195 167 160 137 117 128 123 126 131 133 143 145 123 121 133 138 149 166 187 214 213 186 181 169 164 184 193 200 204 207 208 208 213 214 212 212 215 213 212 214 212 211 210 209 209 212 217 218 219 219 219 220 222 225 220 222 232 239 262 279 275 263 260 270 280 289 295 306 317 318 325 330 332 342 349 353 355 358 7 10 7 14 21 23 21 22
22 84 74 18 217 41 286 189 157 149 145 173 164 150 138 149 147 138 135 123 131 131 118 121 134 142 145 154 165 185 184 173 182 186 179 176 192 203 205 206 209 215 217 219 223 220 215 215 215 214 216 213 208 210 212 209 210 216 219 222 224 227 226 226 228 227 228 235 239 244 245 244 246 244 248 260 273 280 291 303 307 316 320 324 333 343 352 355 355 3 2 356 2 13 15 14 17
37 96 72 259 194 44 14 109 102 125 146 160 147 112 120 152 156 147 164 131 135 123 101 124 142 139 143 161 170 176 167 165 166 178 183 183 195 213 230 239 232 230 228 227 232 233 227 222 218 216 217 217 208 205 209 211 211 213 217 219 223 227 229 229 232 234 232 235 236 231 228 227 227 229 232 237 249 268 274 282 296 304 308 313 319 329 342 349 352 351 350 347 353 8 9 5 8
35 70 76 247 201 67 51 82 78 114 141 139 130 122 124 143 151 147 166 115 127 139 141 151 159 159 161 165 174 177 172 167 159 167 180 187 201 219 238 252 257 255 251 245 241 242 240 234 226 220 216 214 209 203 204 209 209 209 214 215 219 224 226 228 232 235 231 232 236 235 230 223 221 224 229 231 235 256 268 278 286 290 298 310 315 320 332 344 348 343 343 341 345 3 5 0 1
7 78 149 224 171 88 60 86 80 100 122 123 128 130 114 146 157 156 156 103 78 173 173 185 184 179 175 170 179 183 184 176 162 160 173 185 199 218 241 254 263 266 266 263 257 251 247 241 233 222 214 210 206 200 197 200 199 201 204 200 208 212 215 222 223 224 223 225 234 236 224 215 222 219 224 233 231 247 262 279 285 291 303 317 328 331 346 346 343 346 349 337 338 355 360 355 355
20 80 149 107 89 117 132 110 100 104 113 117 125 121 120 152 169 188 178 173 217 190 182 190 187 185 181 179 186 185 188 184 174 171 175 186 203 223 245 255 263 267 269 271 270 260 249 243 235 222 211 208 202 193 190 188 186 193 195 187 191 196 201 212 213 212 212 214 226 231 218 216 234 227 225 231 237 251 244 256 272 283 297 308 318 308 320 330 323 328 331 321 326 344 351 345 345
39 357 79 62 73 134 158 130 132 151 127 118 123 139 148 152 214 240 213 205 206 186 179 179 184 197 204 204 197 191 193 188 184 189 198 209 222 236 243 248 255 261 266 269 268 259 248 243 235 219 203 197 190 184 186 184 186 197 194 185 189 195 204 209 211 215 215 213 217 225 229 232 243 240 227 226 242 257 248 251 253 249 271 294 282 289 305 281 266 277 296 311 316 328 338 335 334
92 292 21 56 71 126 162 171 166 202 177 147 142 170 194 189 217 232 209 204 197 183 180 185 200 212 218 218 201 194 195 192 193 199 213 223 230 240 246 251 256 260 260 260 260 254 246 239 231 214 193 187 181 183 188 185 188 195 189 186 191 198 208 210 214 219 217 219 222 231 239 233 234 239 234 240 255 269 272 266 260 253 250 234 238 246 242 243 253 285 309 311 307 317 324 324 327
81 32 345 15 50 158 195 221 225 241 224 195 220 234 236 231 232 239 210 199 194 193 196 203 212 214 211 205 193 191 195 197 203 212 225 234 238 243 251 259 262 267 266 258 252 245 240 231 219 204 187 181 180 186 190 184 186 191 187 189 195 200 206 210 217 220 215 218 224 229 229 220 226 237 239 245 251 266 277 272 273 268 249 232 240 239 229 242 275 309 310 295 298 316 320 321 325
50 24 342 334 278 227 220 225 230 243 238 221 237 249 255 252 248 260 226 205 198 199 203 205 206 204 193 189 186 185 192 203 214 224 235 243 249 253 256 263 267 272 270 262 248 235 228 213 201 191 178 176 181 185 184 181 184 189 189 192 197 202 206 210 217 221 213 208 212 216 213 207 221 238 241 241 241 250 266 273 283 265 238 226 230 232 222 230 256 255 265 278 294 309 310 316 322
354 347 325 305 277 269 240 224 227 234 239 229 217 246 269 252 220 241 213 198 198 197 193 195 197 191 181 182 187 188 197 211 222 230 240 248 255 263 268 274 277 276 269 256 243 229 216 197 185 179 173 174 178 176 176 181 185 189 192 194 198 201 205 210 215 217 211 208 212 223 229 229 238 250 251 249 246 247 255 266 270 238 235 227 220 228 232 243 248 252 272 285 289 292 298 310 315
353 340 319 293 285 286 251 223 222 215 225 225 209 249 290 226 209 236 206 192 197 197 189 191 193 188 182 183 192 202 212 218 228 236 244 253 261 271 279 281 281 282 271 246 228 218 205 183 172 170 171 172 174 173 175 182 187 192 194 195 197 200 202 206 209 209 206 209 217 228 242 254 261 263 264 265 259 251 254 261 260 255 263 257 248 251 250 259 261 268 281 280 281 284 295 301 297
325 334 317 297 319 308 247 226 212 194 193 206 188 314 301 224 226 236 201 189 191 196 191 189 192 191 188 191 201 210 219 223 228 235 243 253 263 270 273 276 276 274 261 234 215 204 182 165 164 165 166 171 176 179 179 181 186 191 193 195 197 200 200 203 209 208 202 202 208 222 242 254 254 254 259 264 258 257 270 272 264 255 255 265 287 274 256 258 260 263 270 276 284 290 296 297 296
297 299 188 310 349 321 256 230 199 182 171 179 162 311 279 251 238 204 186 186 185 188 188 188 193 196 196 202 210 215 221 224 227 232 240 246 253 260 263 266 266 258 244 220 195 185 166 158 162 164 166 173 177 183 188 187 189 190 191 193 193 197 198 201 205 200 196 195 202 219 230 233 233 233 236 242 239 244 271 280 267 237 229 266 300 286 263 252 253 259 269 282 292 297 301 299 303
283 336 51 357 348 289 297 198 169 164 180 172 147 235 256 276 245 184 182 188 186 186 185 189 196 198 202 206 211 217 221 223 227 231 235 240 244 250 253 251 248 239 228 207 174 160 153 153 158 162 167 175 175 181 189 184 186 190 193 192 188 187 185 189 189 181 184 186 191 201 202 197 186 176 179 196 205 201 216 232 247 259 277 300 295 289 273 257 256 269 281 289 295 300 304 304 304
51 31 317 328 174 265 313 151 163 157 187 174 146 220 260 279 221 183 184 187 190 191 188 194 199 201 205 207 211 215 219 221 224 226 229 235 240 244 247 238 229 220 203 184 159 144 141 146 152 154 160 176 177 179 184 180 180 185 185 182 183 186 182 183 183 172 169 168 167 164 153 151 151 149 153 153 152 157 178 199 225 282 294 300 291 288 286 284 289 293 295 296 300 303 307 308 305
358 144 251 275 192 271 320 240 186 159 140 186 191 212 262 274 200 186 188 190 193 194 194 198 202 206 206 207 214 214 216 219 220 224 226 231 236 241 245 226 212 198 179 176 162 148 141 138 149 151 151 166 171 169 175 178 177 176 172 171 178 183 179 178 172 160 153 147 142 134 127 129 131 127 125 121 118 114 111 113 101 87 124 313 306 305 306 305 309 307 308 310 312 316 319 319 319
313 202 236 251 219 242 286 290 232 164 142 197 223 233 248 265 199 190 197 197 196 198 201 203 203 206 207 207 212 214 217 220 222 224 223 226 230 233 233 216 199 176 168 170 156 152 149 141 146 153 152 158 159 156 163 171 171 171 173 175 174 168 165 162 154 149 142 137 132 124 122 124 123 121 120 118 118 119 118 116 105 102 113 45 328 317 313 315 323 326 326 329 330 334 343 351 356
216 190 212 258 253 245 233 265 226 167 163 199 207 241 250 263 233 203 205 202 202 207 207 204 203 204 204 205 208 212 217 222 225 223 217 217 218 221 219 206 189 173 170 164 153 157 161 155 155 159 160 162 161 157 162 168 171 175 178 172 163 156 153 148 146 147 142 140 136 127 127 128 123 121 123 125 128 130 132 126 121 119 45 352 334 328 337 347 356 359 359 3 2 3 13 20 24
184 185 176 203 234 270 247 247 216 169 177 223 209 228 243 250 248 220 212 206 208 216 214 206 203 203 203 205 207 210 214 219 221 217 210 209 208 208 208 196 177 168 167 163 161 163 165 165 166 167 167 171 177 178 176 175 177 180 174 164 156 151 149 147 147 146 143 142 138 133 137 133 125 122 117 117 117 119 117 106 100 86 69 61 60 59 55 47 41 37 35 35 30 27 29 35 40
214 231 230 211 215 268 266 257 249 166 166 243 226 232 249 245 244 232 218 209 210 217 219 211 204 203 205 204 204 207 211 215 217 213 206 202 200 199 200 188 171 168 167 164 167 166 165 165 166 165 164 168 174 174 170 173 180 177 167 162 155 149 148 149 144 140 140 138 133 132 130 119 114 110 104 101 100 97 95 91 88 85 79 73 69 64 58 51 43 38 34 28 20 16 18 28 40
244 249 256 258 234 256 266 264 276 148 180 263 266 264 266 255 250 241 216 200 210 214 214 214 208 205 207 204 201 202 206 210 211 211 204 198 196 193 193 183 175 178 175 169 168 167 168 169 167 166 165 167 171 171 171 174 177 170 162 158 153 149 148 148 140 135 133 127 122 118 113 108 106 103 99 97 95 91 89 87 82 77 71 64 60 58 54 47 39 31 23 17 12 10 11 14 17
236 235 235 257 254 266 296 323 324 34 178 262 308 297 272 263 257 245 216 204 215 216 215 215 210 205 203 201 200 200 202 206 209 211 203 194 193 190 186 182 183 186 178 174 174 173 174 173 172 172 170 171 173 173 175 171 163 159 157 153 152 148 143 142 134 126 124 120 116 112 108 106 105 102 99 96 93 89 85 80 75 71 68 63 56 53 46 36 30 25 19 17 15 12 11 9 7
222 209 191 238 255 257 280 303 300 308 218 258 316 305 276 270 263 253 232 219 220 221 220 221 216 209 206 203 205 205 205 207 207 208 200 192 191 189 186 184 185 185 178 178 180 179 179 174 172 173 169 167 164 164 167 164 159 159 159 153 150 143 136 134 128 123 123 120 116 113 111 110 108 105 102 99 93 88 82 75 71 64 58 52 41 32 28 25 23 20 17 17 14 12 15 15 12
239 201 190 218 238 218 230 275 316 337 338 323 342 314 283 262 253 261 250 223 221 221 218 220 220 215 210 207 208 211 213 214 213 208 199 193 191 189 187 186 186 184 181 181 179 178 177 172 171 170 165 163 164 166 169 167 162 161 158 150 145 139 132 131 129 126 127 124 121 120 117 114 113 110 106 100 90 81 73 63 57 46 40 35 26 21 21 21 19 16 16 15 14 18 23 21 18
268 230 204 210 218 223 235 290 25 2 324 300 73 311 282 276 255 264 283 193 219 217 209 211 211 208 207 205 205 209 214 218 221 216 204 196 192 190 188 186 187 186 183 182 178 177 176 173 170 167 166 167 168 169 168 166 162 157 152 147 144 139 133 133 134 132 132 131 130 127 123 120 116 110 103 93 81 70 60 52 43 34 29 25 24 22 20 21 18 18 19 17 17 23 23 19 23
251 247 206 206 216 227 236 238 59 265 268 279 99 148 274 289 263 249 231 210 225 221 213 210 201 198 201 203 204 206 208 212 216 215 205 197 193 191 188 186 187 186 184 183 180 177 176 174 170 168 169 169 168 165 162 161 158 153 149 146 144 143 141 140 139 138 139 138 133 129 127 122 114 105 96 85 74 62 51 43 34 29 26 24 24 20 17 20 19 20 20 17 18 20 16 15 22
231 246 173 175 203 217 215 168 171 226 258 321 36 125 277 281 261 238 205 211 240 236 229 220 204 197 198 200 203 206 209 211 211 208 202 197 194 192 188 185 185 185 183 183 181 178 177 176 173 173 172 167 163 159 156 156 154 151 150 148 146 149 151 146 143 144 141 138 135 130 127 122 113 104 92 79 67 55 42 35 31 27 24 24 23 18 19 21 19 19 18 16 16 14 12 14 16
240 225 128 130 159 165 137 117 151 302 355 311 282 131 270 272 263 285 172 212 248 243 231 223 210 203 199 198 202 206 209 213 213 209 201 196 193 190 187 184 182 183 183 183 181 178 178 178 175 173 169 163 158 154 151 153 155 154 156 157 155 155 156 149 147 147 141 140 141 133 128 123 114 104 89 74 59 48 38 33 30 25 22 22 20 18 19 19 17 16 14 13 12 10 11 11 10
206 144 85 69 69 72 73 92 97 21 327 236 211 171 236 269 237 120 120 227 242 244 236 222 210 208 203 199 200 203 205 208 210 209 202 195 192 189 186 184 182 183 184 183 182 179 179 178 175 172 168 162 156 152 152 156 160 163 165 169 166 161 159 153 150 149 145 147 147 138 133 126 116 105 87 69 52 42 35 30 26 20 19 19 17 16 15 13 12 11 10 10 9 8 8 8 8
132 94 60 45 24 32 41 54 84 32 273 216 197 189 197 267 268 168 194 223 222 234 243 220 203 205 206 203 201 201 202 203 204 206 201 194 191 188 186 185 183 183 185 184 182 181 180 179 175 171 167 161 156 155 158 162 166 171 173 175 175 168 163 159 157 155 152 153 152 143 137 130 119 104 81 61 45 37 30 23 20 17 16 16 14 13 12 10 10 10 10 10 7 8 9 9 10
114 88 83 68 349 13 19 3 58 234 253 210 198 192 189 231 263 223 228 247 230 219 223 210 193 198 203 203 203 202 201 202 202 202 199 193 190 188 186 186 185 185 185 185 183 182 181 179 175 171 166 163 162 162 166 169 170 174 177 177 177 171 165 163 163 161 157 156 155 146 141 136 125 105 78 55 39 32 23 17 16 16 15 14 13 12 12 11 12 12 10 9 9 10 11 11 9
99 106 113 120 283 8 357 306 122 231 256 251 198 182 199 235 254 256 254 258 250 237 230 215 197 194 198 199 200 201 201 202 201 201 199 194 191 188 187 187 187 186 186 185 184 183 180 178 175 171 168 168 169 170 173 175 175 177 178 177 176 172 167 167 167 164 158 157 156 151 148 142 130 112 79 48 34 29 25 21 20 19 16 15 15 14 14 13 12 12 11 10 11 12 11 10 8
150 141 143 158 171 169 257 244 254 256 266 286 194 164 226 269 266 248 250 258 256 260 255 228 209 201 200 198 197 198 199 201 202 201 200 197 192 190 189 188 187 187 186 185 184 181 180 178 176 174 174 174 175 176 177 178 178 178 179 179 179 177 173 170 169 166 161 160 161 159 154 147 138 126 104 61 46 50 44 38 32 25 21 18 17 16 15 15 14 13 14 13 11 11 11 8 4
180 153 140 159 160 177 217 207 223 254 275 290 243 164 198 212 247 240 249 278 277 268 251 222 212 206 197 192 191 193 197 199 201 202 202 199 194 191 190 188 188 188 186 185 183 182 181 180 178 179 180 179 179 180 181 180 180 180 181 182 183 182 178 173 169 168 167 168 168 165 161 157 157 161 155 131 94 86 69 53 40 29 25 21 18 17 15 16 14 13 12 9 8 6 4 2 359
220 118 117 184 182 182 227 205 184 189 289 282 220 221 216 209 262 260 263 299 303 260 209 190 189 189 183 182 187 191 195 197 200 201 201 200 195 192 191 189 189 188 187 185 183 183 183 182 181 183 185 184 183 184 184 183 183 183 184 186 186 184 181 178 175 173 173 173 172 171 172 170 175 182 171 144 117 98 71 50 38 27 23 18 14 13 12 11 10 8 6 3 1 359 356 355 352
176 144 175 199 169 165 221 275 32 85 272 262 196 244 291 303 272 260 119 288 290 225 179 175 174 174 176 182 186 191 194 197 200 202 202 200 195 193 192 191 189 188 187 185 185 186 186 186 186 186 188 188 187 187 187 186 187 188 188 188 188 186 183 184 184 183 181 178 178 179 182 184 187 189 170 139 115 88 61 43 31 22 16 12 9 7 5 4 3 0 359 355 353 351 349 349 346
132 185 197 140 63 93 143 261 342 43 262 266 202 231 256 239 259 282 85 240 254 242 198 174 171 174 179 186 189 193 196 198 201 202 202 200 196 194 193 191 190 188 187 187 187 188 188 190 191 190 191 192 191 190 190 190 191 192 192 190 188 187 186 188 190 191 188 185 185 185 187 194 193 185 163 135 110 80 55 35 23 15 8 4 1 359 357 356 355 353 351 349 347 346 346 345 343
133 187 186 130 122 208 138 177 233 199 253 279 256 239 228 205 218 215 192 219 228 226 203 185 185 185 188 190 191 194 196 197 200 202 202 200 197 195 193 191 190 189 189 189 189 191 191 192 194 194 194 195 195 194 192 193 195 196 195 192 190 189 189 193 196 195 193 190 191 191 194 199 195 180 162 141 113 75 44 24 15 6 360 356 352 352 351 349 349 347 347 347 347 346 345 344 341
51 69 168 138 136 173 170 177 177 171 235 277 302 286 239 216 201 182 197 214 212 203 197 200 199 193 192 192 191 193 196 198 201 202 202 200 197 196 193 192 191 190 191 191 192 193 193 194 196 196 196 197 197 197 196 196 197 197 197 193 192 193 195 199 200 198 196 194 194 198 200 200 193 181 170 156 128 68 26 10 3 356 350 348 346 346 345 343 345 346 346 347 346 345 343 341 339
151 152 181 189 130 112 181 216 152 142 188 237 269 277 263 233 192 188 200 210 205 195 196 204 204 198 196 196 195 195 198 201 203 203 202 200 198 196 194 193 192 192 193 194 195 195 195 196 197 198 199 199 200 200 199 199 198 199 199 197 196 198 200 203 202 200 199 198 200 203 203 200 193 189 187 183 183 348 354 350 349 346 343 341 340 339 339 340 341 342 343 343 341 341 340 338 337
176 184 190 187 172 138 188 249 207 154 197 197 199 268 267 234 183 205 208 210 205 197 197 201 201 199 199 200 200 200 201 203 204 203 202 200 198 197 195 195 194 194 195 196 197 197 198 199 199 200 202 202 203 202 201 201 201 200 200 201 202 203 205 206 204 202 201 203 205 206 205 202 199 201 202 203 216 259 315 332 336 337 336 334 333 333 334 335 336 336 336 337 337 337 336 334 333